Simultaneous Nadir Overpasses (SNOs) Predictions

Prediction of SNOs between GOES-17 and AQUA Satellite Orbit:

Table of predicted SNOs for the next 14.0 days since TLE Epoch: 11/29/2019
Index Date Time (GOES-17) GOES-17 Lat,Lon AQUA Lat,Lon Distance(km) Time Diff (sec)
1 11/29/2019 22:48:27 -0.00,-137.20 -0.16,-137.91 80.74 80
2 12/01/2019 22:33:35 0.00,-137.20 0.46,-134.95 255.19 80
3 12/02/2019 10:57:31 0.00,-137.20 0.63,-140.11 330.83 80
4 12/04/2019 10:45:19 -0.00,-137.20 0.00,-137.15 5.19 80
5 12/06/2019 10:30:27 -0.01,-137.18 -0.63,-134.19 340.10 80
6 12/06/2019 22:54:31 0.00,-137.18 -0.44,-139.39 250.70 80
7 12/08/2019 22:39:38 0.00,-137.16 0.13,-136.41 84.04 80
8 12/10/2019 22:27:26 -0.00,-137.13 0.77,-133.45 417.87 80
9 12/11/2019 10:51:22 0.01,-137.13 0.32,-138.61 168.70 80
10 12/13/2019 10:36:30 0.01,-137.09 -0.33,-135.66 164.00 80




NCC Satellite Simultaneous Nadir Overpasses (SNOs) Prediction Service
